Back to catalog

COSMOS 886 DEB

AliveLEO
NORAD 18907·DEBRIS·🇷🇺 Russia

Launched Dec 27, 1976 from Baikonur Cosmodrome

Loading…

Next Passes (next 24 hours)

TLE

FreshSource: Space-Track

Epoch: Sep 14, 2026, 04:19 UTC

1 18907U 76126BY  26257.18010841  .00001750  00000-0  41752-3 0  9997
2 18907  65.8140 168.3446 0865908 346.8004  11.1603 13.31640556859631

Track COSMOS 886 DEB in real time with AllMySat

Download on the App Store